Location: Baia de Cri?
(46.1667°N, 22.7167°E)
Time: 20:35:54
(UTC+00:00)

Cosmos 921 Rocket - Pass Details

Date: 15 January 2026
Orbit: 564 x 620 km, 75.8° (Epoch: 10 February)

Event Time Altitude Azimuth Distance (km) Brightness Sun altitude
Rises 04:49:43 0° 220° (SW) 2,836 6.2 -13.2°
Reaches altitude 10° 04:52:06 10° 229° (SW) 1,928 5.3 -12.8°
Maximum altitude 04:56:02 35° 296° (WNW) 966 3.5 -12.1°
Drops below altitude 10° 04:59:57 10° 2° (N) 1,909 5.4 -11.5°
Sets 05:02:18 0° 12° (NNE) 2,804 6.4 -11.1°
